Date,TemperatureHighF,TemperatureAvgF,TemperatureLowF,DewpointHighF,DewpointAvgF,DewpointLowF,HumidityHigh,HumidityAvg,HumidityLow,PressureMaxIn,PressureMinIn,WindSpeedMaxMPH,WindSpeedAvgMPH,GustSpeedMaxMPH,PrecipitationSumIn
2013-3-1,56.9,53.1,50.7,51.1,49.8,48.6,98,89,77,30.42,30.34,3,1,10,0.08
2013-3-2,57.5,48.3,37.9,49.1,44.6,36.9,97,87,69,30.34,30.13,3,0,7,0.39
2013-3-3,48.0,38.8,31.0,41.0,34.9,29.5,98,87,57,30.38,30.26,2,0,10,0.00
2013-3-4,52.6,38.6,28.2,35.9,30.2,27.2,97,75,41,30.37,29.99,1,0,4,0.01
2013-3-5,52.6,44.7,38.2,39.3,33.7,26.8,89,66,48,29.99,29.78,0,0,1,0.00
2013-3-6,43.2,40.7,37.3,41.8,39.1,35.4,97,94,88,29.96,29.64,1,0,6,0.55
2013-3-7,49.9,42.5,35.0,46.1,41.1,34.2,99,95,82,30.16,29.96,0,0,2,0.33
2013-3-8,52.5,39.3,31.2,42.5,35.8,30.4,98,88,64,30.31,30.15,2,0,7,0.01
2013-3-9,53.2,39.9,29.1,41.3,35.0,28.1,98,84,52,30.56,30.31,2,0,4,0.01
2013-3-10,47.9,41.4,33.8,42.2,38.5,32.5,97,90,73,30.57,30.49,0,0,4,0.01
2013-3-11,52.2,45.7,38.9,46.1,42.5,38.1,98,89,68,30.51,30.23,0,0,6,0.04
2013-3-12,55.1,52.0,45.8,50.3,47.8,45.0,97,86,72,30.23,30.13,3,2,17,0.01
2013-3-13,53.1,51.3,49.1,52.0,49.1,46.7,98,92,84,30.26,30.16,3,1,16,0.20
2013-3-14,53.1,49.6,47.4,50.9,47.8,44.5,99,94,78,30.21,30.08,2,0,13,0.04
2013-3-15,59.2,52.1,47.6,50.7,47.8,45.2,98,86,68,30.27,30.19,2,0,13,0.00
2013-3-16,49.9,46.1,38.5,45.7,41.5,35.0,89,84,69,30.19,29.94,4,1,14,0.05
2013-3-17,49.8,40.8,35.3,38.8,35.7,33.1,97,83,57,30.26,30.03,4,0,16,0.17
2013-3-18,51.7,42.2,34.6,43.3,37.3,32.5,97,84,56,30.31,30.17,3,0,14,0.13
2013-3-19,56.6,42.1,31.6,41.5,35.2,29.3,97,80,36,30.31,29.66,2,0,17,0.26
2013-3-20,51.9,45.3,36.0,49.2,41.4,33.9,99,87,69,30.07,29.45,6,2,23,0.61
2013-3-21,46.4,38.4,33.5,39.2,35.2,32.2,97,89,64,30.28,30.08,1,0,10,0.21
2013-3-22,44.9,36.8,30.3,37.2,32.9,28.5,97,87,60,30.45,30.28,2,0,8,0.15
2013-3-23,49.2,38.0,29.8,33.4,29.6,23.8,97,75,39,30.47,30.37,2,0,8,0.01
2013-3-24,55.7,40.5,28.7,37.1,29.9,26.3,96,70,34,30.38,30.19,1,0,4,0.00
2013-3-25,60.9,45.1,30.6,37.6,31.6,27.2,89,63,34,30.20,29.99,0,0,1,0.00
2013-3-26,60.9,49.1,41.6,43.7,38.5,35.5,85,68,43,30.07,30.01,2,0,8,0.00
2013-3-27,58.0,48.6,42.1,50.6,42.8,38.7,95,81,58,30.04,29.99,1,0,6,0.02
2013-3-28,62.0,50.2,40.9,50.8,44.5,39.8,99,83,54,30.21,30.04,2,0,9,0.02
2013-3-29,64.3,51.5,40.2,49.6,44.0,38.9,97,78,52,30.31,30.21,2,0,9,0.00
2013-3-30,67.8,51.4,37.2,49.1,43.0,35.9,98,76,45,30.32,30.14,3,0,11,0.00
2013-3-31,72.0,54.4,39.2,48.9,43.9,37.9,98,72,38,30.14,29.96,1,0,7,0.00